This is the latest recevied weather packets stored in our database for station/object N0ZJT. If no packets are shown the sender has not sent any weather packets the latest 10 day(s).
| Time | Temp. | Humidity | Pressure | Rain* | Wind** | Luminosity | Snow |
|---|---|---|---|---|---|---|---|
| 1776964490 | 24.44° C | 62% | 966.9 hPa | 0 mm | - | - | - |
| 1776963530 | 23.89° C | 64% | 967.2 hPa | 0 mm | - | - | - |
| 1776962690 | 23.89° C | 65% | 967.6 hPa | 0 mm | - | - | - |
| 1776961730 | 23.89° C | 65% | 967.6 hPa | 0 mm | - | - | - |
| 1776960890 | 23.33° C | 67% | 968.1 hPa | 0 mm | - | - | - |
| 1776959930 | 22.22° C | 69% | 968.3 hPa | 0 mm | - | - | - |
| 1776959090 | 21.67° C | 70% | 968.4 hPa | 0 mm | - | - | - |
| 1776958130 | 21.11° C | 72% | 968.4 hPa | 0 mm | - | - | - |
| 1776957290 | 20.56° C | 73% | 968.5 hPa | 0 mm | - | - | - |
| 1776956330 | 20° C | 75% | 968.8 hPa | 0 mm | - | - | - |
| 1776955490 | 19.44° C | 76% | 968.8 hPa | 0 mm | - | - | - |
| 1776954530 | 18.89° C | 77% | 969.7 hPa | 0 mm | - | - | - |
| 1776953690 | 18.89° C | 79% | 970 hPa | 0 mm | - | - | - |
| 1776952730 | 18.33° C | 80% | 970.1 hPa | 0 mm | - | - | - |
| 1776951890 | 17.78° C | 80% | 970.1 hPa | 0 mm | - | - | - |
| 1776950930 | 17.78° C | 80% | 970.6 hPa | 0 mm | - | - | - |
| 1776950090 | 17.78° C | 81% | 970.4 hPa | 0 mm | - | - | - |
| 1776949130 | 17.22° C | 83% | 969.9 hPa | 0 mm | - | - | - |
| 1776948290 | 16.67° C | 84% | 969.8 hPa | 0 mm | - | - | - |
| 1776947330 | 16.11° C | 85% | 970 hPa | 0 mm | - | - | - |
| 1776946490 | 15.56° C | 86% | 969.8 hPa | 0 mm | - | - | - |
| 1776945530 | 15° C | 86% | 969.9 hPa | 0 mm | - | - | - |
| 1776944690 | 15° C | 86% | 970 hPa | 0 mm | - | - | - |
| 1776943730 | 15.56° C | 86% | 970.2 hPa | 0 mm | - | - | - |
| 1776942890 | 15.56° C | 86% | 970.4 hPa | 0 mm | - | - | - |
* Rain latest hour (hover to see other rain measurements)
** Current wind speed in m/s (hover to see current wind gust speed)